#datetime,building,power
2022-06-18T00:00:00,hdy,34.05
2022-06-18T00:01:00,hdy,36.18
2022-06-18T00:02:00,hdy,34.47
2022-06-18T00:03:00,hdy,34.45
2022-06-18T00:04:00,hdy,34.13
2022-06-18T00:05:00,hdy,33.46
2022-06-18T00:06:00,hdy,34.59
2022-06-18T00:07:00,hdy,33.83
2022-06-18T00:08:00,hdy,34.49
2022-06-18T00:09:00,hdy,34.73
2022-06-18T00:10:00,hdy,34.39
2022-06-18T00:11:00,hdy,33.55
2022-06-18T00:12:00,hdy,33.92
2022-06-18T00:13:00,hdy,33.71
2022-06-18T00:14:00,hdy,34.97
2022-06-18T00:15:00,hdy,34.59
2022-06-18T00:16:00,hdy,36.24
2022-06-18T00:17:00,hdy,34.98
2022-06-18T00:18:00,hdy,33.69
2022-06-18T00:19:00,hdy,34.40
2022-06-18T00:20:00,hdy,34.14
2022-06-18T00:21:00,hdy,36.35
2022-06-18T00:22:00,hdy,35.13
2022-06-18T00:23:00,hdy,36.43
2022-06-18T00:24:00,hdy,35.25
2022-06-18T00:25:00,hdy,36.06
2022-06-18T00:26:00,hdy,34.42
2022-06-18T00:27:00,hdy,34.68
2022-06-18T00:28:00,hdy,34.74
2022-06-18T00:29:00,hdy,34.62
2022-06-18T00:30:00,hdy,34.83
2022-06-18T00:31:00,hdy,35.10
2022-06-18T00:32:00,hdy,34.02
2022-06-18T00:33:00,hdy,33.55
2022-06-18T00:34:00,hdy,35.39
2022-06-18T00:35:00,hdy,34.53
2022-06-18T00:36:00,hdy,36.32
2022-06-18T00:37:00,hdy,34.88
2022-06-18T00:38:00,hdy,34.85
2022-06-18T00:39:00,hdy,35.57
2022-06-18T00:40:00,hdy,34.06
2022-06-18T00:41:00,hdy,33.99
2022-06-18T00:42:00,hdy,34.97
2022-06-18T00:43:00,hdy,35.28
2022-06-18T00:44:00,hdy,35.12
2022-06-18T00:45:00,hdy,33.27
2022-06-18T00:46:00,hdy,33.77
2022-06-18T00:47:00,hdy,34.12
2022-06-18T00:48:00,hdy,33.21
2022-06-18T00:49:00,hdy,34.76
2022-06-18T00:50:00,hdy,34.95
2022-06-18T00:51:00,hdy,34.81
2022-06-18T00:52:00,hdy,34.02
2022-06-18T00:53:00,hdy,33.48
2022-06-18T00:54:00,hdy,33.46
2022-06-18T00:55:00,hdy,33.18
2022-06-18T00:56:00,hdy,35.09
2022-06-18T00:57:00,hdy,34.42
2022-06-18T00:58:00,hdy,34.27
2022-06-18T00:59:00,hdy,34.28
2022-06-18T01:00:00,hdy,33.96
2022-06-18T01:01:00,hdy,34.08
2022-06-18T01:02:00,hdy,34.38
2022-06-18T01:03:00,hdy,36.22
2022-06-18T01:04:00,hdy,34.44
2022-06-18T01:05:00,hdy,35.02
2022-06-18T01:06:00,hdy,33.81
2022-06-18T01:07:00,hdy,34.27
2022-06-18T01:08:00,hdy,33.87
2022-06-18T01:09:00,hdy,34.66
2022-06-18T01:10:00,hdy,34.95
2022-06-18T01:11:00,hdy,34.56
2022-06-18T01:12:00,hdy,34.25
2022-06-18T01:13:00,hdy,34.30
2022-06-18T01:14:00,hdy,34.30
2022-06-18T01:15:00,hdy,34.87
2022-06-18T01:16:00,hdy,35.85
2022-06-18T01:17:00,hdy,35.78
2022-06-18T01:18:00,hdy,35.23
2022-06-18T01:19:00,hdy,34.55
2022-06-18T01:20:00,hdy,34.43
2022-06-18T01:21:00,hdy,35.60
2022-06-18T01:22:00,hdy,34.34
2022-06-18T01:23:00,hdy,35.03
2022-06-18T01:24:00,hdy,35.18
2022-06-18T01:25:00,hdy,35.26
2022-06-18T01:26:00,hdy,35.49
2022-06-18T01:27:00,hdy,34.26
2022-06-18T01:28:00,hdy,34.55
2022-06-18T01:29:00,hdy,35.29
2022-06-18T01:30:00,hdy,35.80
2022-06-18T01:31:00,hdy,34.91
2022-06-18T01:32:00,hdy,34.90
2022-06-18T01:33:00,hdy,34.25
2022-06-18T01:34:00,hdy,34.03
2022-06-18T01:35:00,hdy,34.29
2022-06-18T01:36:00,hdy,34.80
2022-06-18T01:37:00,hdy,34.87
2022-06-18T01:38:00,hdy,34.81
2022-06-18T01:39:00,hdy,33.94
2022-06-18T01:40:00,hdy,33.40
2022-06-18T01:41:00,hdy,33.30
2022-06-18T01:42:00,hdy,34.51
2022-06-18T01:43:00,hdy,36.76
2022-06-18T01:44:00,hdy,35.29
2022-06-18T01:45:00,hdy,35.32
2022-06-18T01:46:00,hdy,34.24
2022-06-18T01:47:00,hdy,35.48
2022-06-18T01:48:00,hdy,34.56
2022-06-18T01:49:00,hdy,36.04
2022-06-18T01:50:00,hdy,35.57
2022-06-18T01:51:00,hdy,35.04
2022-06-18T01:52:00,hdy,33.64
2022-06-18T01:53:00,hdy,33.35
2022-06-18T01:54:00,hdy,33.58
2022-06-18T01:55:00,hdy,33.32
2022-06-18T01:56:00,hdy,35.24
2022-06-18T01:57:00,hdy,34.34
2022-06-18T01:58:00,hdy,35.74
2022-06-18T01:59:00,hdy,33.81
2022-06-18T02:00:00,hdy,33.62
2022-06-18T02:01:00,hdy,33.89
2022-06-18T02:02:00,hdy,34.04
2022-06-18T02:03:00,hdy,35.49
2022-06-18T02:04:00,hdy,35.57
2022-06-18T02:05:00,hdy,35.42
2022-06-18T02:06:00,hdy,34.27
2022-06-18T02:07:00,hdy,35.98
2022-06-18T02:08:00,hdy,33.84
2022-06-18T02:09:00,hdy,34.66
2022-06-18T02:10:00,hdy,34.59
2022-06-18T02:11:00,hdy,36.26
2022-06-18T02:12:00,hdy,34.34
2022-06-18T02:13:00,hdy,35.00
2022-06-18T02:14:00,hdy,33.75
2022-06-18T02:15:00,hdy,34.01
2022-06-18T02:16:00,hdy,33.97
2022-06-18T02:17:00,hdy,36.16
2022-06-18T02:18:00,hdy,34.69
2022-06-18T02:19:00,hdy,35.53
2022-06-18T02:20:00,hdy,33.74
2022-06-18T02:21:00,hdy,35.02
2022-06-18T02:22:00,hdy,33.41
2022-06-18T02:23:00,hdy,34.37
2022-06-18T02:24:00,hdy,34.33
2022-06-18T02:25:00,hdy,34.81
2022-06-18T02:26:00,hdy,35.28
2022-06-18T02:27:00,hdy,33.48
2022-06-18T02:28:00,hdy,33.24
2022-06-18T02:29:00,hdy,32.97
2022-06-18T02:30:00,hdy,33.58
2022-06-18T02:31:00,hdy,35.17
2022-06-18T02:32:00,hdy,34.03
2022-06-18T02:33:00,hdy,33.01
2022-06-18T02:34:00,hdy,32.74
2022-06-18T02:35:00,hdy,32.75
2022-06-18T02:36:00,hdy,32.73
2022-06-18T02:37:00,hdy,33.67
2022-06-18T02:38:00,hdy,33.83
2022-06-18T02:39:00,hdy,34.93
2022-06-18T02:40:00,hdy,33.46
2022-06-18T02:41:00,hdy,33.45
2022-06-18T02:42:00,hdy,35.00
2022-06-18T02:43:00,hdy,33.69
2022-06-18T02:44:00,hdy,34.36
2022-06-18T02:45:00,hdy,34.65
2022-06-18T02:46:00,hdy,33.59
2022-06-18T02:47:00,hdy,35.22
2022-06-18T02:48:00,hdy,33.37
2022-06-18T02:49:00,hdy,33.90
2022-06-18T02:50:00,hdy,34.93
2022-06-18T02:51:00,hdy,34.85
2022-06-18T02:52:00,hdy,36.85
2022-06-18T02:53:00,hdy,34.27
2022-06-18T02:54:00,hdy,34.93
2022-06-18T02:55:00,hdy,34.04
2022-06-18T02:56:00,hdy,35.17
2022-06-18T02:57:00,hdy,35.38
2022-06-18T02:58:00,hdy,36.78
2022-06-18T02:59:00,hdy,35.43
2022-06-18T03:00:00,hdy,34.76
2022-06-18T03:01:00,hdy,34.66
2022-06-18T03:02:00,hdy,34.45
2022-06-18T03:03:00,hdy,35.44
2022-06-18T03:04:00,hdy,35.57
2022-06-18T03:05:00,hdy,36.10
2022-06-18T03:06:00,hdy,36.04
2022-06-18T03:07:00,hdy,34.83
2022-06-18T03:08:00,hdy,34.86
2022-06-18T03:09:00,hdy,36.43
2022-06-18T03:10:00,hdy,35.74
2022-06-18T03:11:00,hdy,35.18
2022-06-18T03:12:00,hdy,35.39
2022-06-18T03:13:00,hdy,34.50
2022-06-18T03:14:00,hdy,34.43
2022-06-18T03:15:00,hdy,34.25
2022-06-18T03:16:00,hdy,34.75
2022-06-18T03:17:00,hdy,35.01
2022-06-18T03:18:00,hdy,34.69
2022-06-18T03:19:00,hdy,34.62
2022-06-18T03:20:00,hdy,35.55
2022-06-18T03:21:00,hdy,33.77
2022-06-18T03:22:00,hdy,33.78
2022-06-18T03:23:00,hdy,34.59
2022-06-18T03:24:00,hdy,34.31
2022-06-18T03:25:00,hdy,36.07
2022-06-18T03:26:00,hdy,33.46
2022-06-18T03:27:00,hdy,33.24
2022-06-18T03:28:00,hdy,33.25
2022-06-18T03:29:00,hdy,33.19
2022-06-18T03:30:00,hdy,34.26
2022-06-18T03:31:00,hdy,34.29
2022-06-18T03:32:00,hdy,36.54
2022-06-18T03:33:00,hdy,33.38
2022-06-18T03:34:00,hdy,33.20
2022-06-18T03:35:00,hdy,33.15
2022-06-18T03:36:00,hdy,33.49
2022-06-18T03:37:00,hdy,36.07
2022-06-18T03:38:00,hdy,34.32
2022-06-18T03:39:00,hdy,35.02
2022-06-18T03:40:00,hdy,33.34
2022-06-18T03:41:00,hdy,33.36
2022-06-18T03:42:00,hdy,33.67
2022-06-18T03:43:00,hdy,34.97
2022-06-18T03:44:00,hdy,35.30
2022-06-18T03:45:00,hdy,35.52
2022-06-18T03:46:00,hdy,34.73
2022-06-18T03:47:00,hdy,34.23
2022-06-18T03:48:00,hdy,33.55
2022-06-18T03:49:00,hdy,33.42
2022-06-18T03:50:00,hdy,35.74
2022-06-18T03:51:00,hdy,34.36
2022-06-18T03:52:00,hdy,34.79
2022-06-18T03:53:00,hdy,33.74
2022-06-18T03:54:00,hdy,34.24
2022-06-18T03:55:00,hdy,34.02
2022-06-18T03:56:00,hdy,33.64
2022-06-18T03:57:00,hdy,34.74
2022-06-18T03:58:00,hdy,34.71
2022-06-18T03:59:00,hdy,36.28
2022-06-18T04:00:00,hdy,34.20
2022-06-18T04:01:00,hdy,33.93
2022-06-18T04:02:00,hdy,34.24
2022-06-18T04:03:00,hdy,34.86
2022-06-18T04:04:00,hdy,36.91
2022-06-18T04:05:00,hdy,35.82
2022-06-18T04:06:00,hdy,34.13
2022-06-18T04:07:00,hdy,34.52
2022-06-18T04:08:00,hdy,34.50
2022-06-18T04:09:00,hdy,34.56
2022-06-18T04:10:00,hdy,35.50
2022-06-18T04:11:00,hdy,35.79
2022-06-18T04:12:00,hdy,35.34
2022-06-18T04:13:00,hdy,36.35
2022-06-18T04:14:00,hdy,34.66
2022-06-18T04:15:00,hdy,35.88
2022-06-18T04:16:00,hdy,34.97
2022-06-18T04:17:00,hdy,35.13
2022-06-18T04:18:00,hdy,35.25
2022-06-18T04:19:00,hdy,35.25
2022-06-18T04:20:00,hdy,33.79
2022-06-18T04:21:00,hdy,34.31
2022-06-18T04:22:00,hdy,34.31
2022-06-18T04:23:00,hdy,34.22
2022-06-18T04:24:00,hdy,35.03
2022-06-18T04:25:00,hdy,34.85
2022-06-18T04:26:00,hdy,34.60
2022-06-18T04:27:00,hdy,35.55
2022-06-18T04:28:00,hdy,33.75
2022-06-18T04:29:00,hdy,33.50
2022-06-18T04:30:00,hdy,33.74
2022-06-18T04:31:00,hdy,34.72
2022-06-18T04:32:00,hdy,34.56
2022-06-18T04:33:00,hdy,35.46
2022-06-18T04:34:00,hdy,33.88
2022-06-18T04:35:00,hdy,34.12
2022-06-18T04:36:00,hdy,33.79
2022-06-18T04:37:00,hdy,34.90
2022-06-18T04:38:00,hdy,35.18
2022-06-18T04:39:00,hdy,34.55
2022-06-18T04:40:00,hdy,36.02
2022-06-18T04:41:00,hdy,33.36
2022-06-18T04:42:00,hdy,33.72
2022-06-18T04:43:00,hdy,33.37
2022-06-18T04:44:00,hdy,34.31
2022-06-18T04:45:00,hdy,34.12
2022-06-18T04:46:00,hdy,34.39
2022-06-18T04:47:00,hdy,33.21
2022-06-18T04:48:00,hdy,33.34
2022-06-18T04:49:00,hdy,33.70
2022-06-18T04:50:00,hdy,35.22
2022-06-18T04:51:00,hdy,34.43
2022-06-18T04:52:00,hdy,34.47
2022-06-18T04:53:00,hdy,35.06
2022-06-18T04:54:00,hdy,34.41
2022-06-18T04:55:00,hdy,35.12
2022-06-18T04:56:00,hdy,34.22
2022-06-18T04:57:00,hdy,36.85
2022-06-18T04:58:00,hdy,35.47
2022-06-18T04:59:00,hdy,35.18
2022-06-18T05:00:00,hdy,34.26
2022-06-18T05:01:00,hdy,34.26
2022-06-18T05:02:00,hdy,33.13
2022-06-18T05:03:00,hdy,34.42
2022-06-18T05:04:00,hdy,33.80
2022-06-18T05:05:00,hdy,35.41
2022-06-18T05:06:00,hdy,33.91
2022-06-18T05:07:00,hdy,32.99
2022-06-18T05:08:00,hdy,32.97
2022-06-18T05:09:00,hdy,32.96
2022-06-18T05:10:00,hdy,33.07
2022-06-18T05:11:00,hdy,33.39
2022-06-18T05:12:00,hdy,33.30
2022-06-18T05:13:00,hdy,33.19
2022-06-18T05:14:00,hdy,32.26
2022-06-18T05:15:00,hdy,32.27
2022-06-18T05:16:00,hdy,33.01
2022-06-18T05:17:00,hdy,33.92
2022-06-18T05:18:00,hdy,33.56
2022-06-18T05:19:00,hdy,34.55
2022-06-18T05:20:00,hdy,33.76
2022-06-18T05:21:00,hdy,35.22
2022-06-18T05:22:00,hdy,33.79
2022-06-18T05:23:00,hdy,34.47
2022-06-18T05:24:00,hdy,33.80
2022-06-18T05:25:00,hdy,35.06
2022-06-18T05:26:00,hdy,33.57
2022-06-18T05:27:00,hdy,33.42
2022-06-18T05:28:00,hdy,32.13
2022-06-18T05:29:00,hdy,32.47
2022-06-18T05:30:00,hdy,33.17
2022-06-18T05:31:00,hdy,33.11
2022-06-18T05:32:00,hdy,33.02
2022-06-18T05:33:00,hdy,33.46
2022-06-18T05:34:00,hdy,33.63
2022-06-18T05:35:00,hdy,32.39
2022-06-18T05:36:00,hdy,32.45
2022-06-18T05:37:00,hdy,33.21
2022-06-18T05:38:00,hdy,33.53
2022-06-18T05:39:00,hdy,33.34
2022-06-18T05:40:00,hdy,31.90
2022-06-18T05:41:00,hdy,33.34
2022-06-18T05:42:00,hdy,31.91
2022-06-18T05:43:00,hdy,32.14
2022-06-18T05:44:00,hdy,33.10
2022-06-18T05:45:00,hdy,33.68
2022-06-18T05:46:00,hdy,35.06
2022-06-18T05:47:00,hdy,32.50
2022-06-18T05:48:00,hdy,33.85
2022-06-18T05:49:00,hdy,32.53
2022-06-18T05:50:00,hdy,33.12
2022-06-18T05:51:00,hdy,33.94
2022-06-18T05:52:00,hdy,34.29
2022-06-18T05:53:00,hdy,34.25
2022-06-18T05:54:00,hdy,34.72
2022-06-18T05:55:00,hdy,33.32
2022-06-18T05:56:00,hdy,34.75
2022-06-18T05:57:00,hdy,34.28
2022-06-18T05:58:00,hdy,35.29
2022-06-18T05:59:00,hdy,35.35
2022-06-18T06:00:00,hdy,35.34
2022-06-18T06:01:00,hdy,33.95
2022-06-18T06:02:00,hdy,33.62
2022-06-18T06:03:00,hdy,33.96
2022-06-18T06:04:00,hdy,35.55
2022-06-18T06:05:00,hdy,36.73
2022-06-18T06:06:00,hdy,36.08
2022-06-18T06:07:00,hdy,37.29
2022-06-18T06:08:00,hdy,34.25
2022-06-18T06:09:00,hdy,34.69
2022-06-18T06:10:00,hdy,34.83
2022-06-18T06:11:00,hdy,35.98
2022-06-18T06:12:00,hdy,35.90
2022-06-18T06:13:00,hdy,36.50
2022-06-18T06:14:00,hdy,35.28
2022-06-18T06:15:00,hdy,35.39
2022-06-18T06:16:00,hdy,35.01
2022-06-18T06:17:00,hdy,34.66
2022-06-18T06:18:00,hdy,36.50
2022-06-18T06:19:00,hdy,36.29
2022-06-18T06:20:00,hdy,36.32
2022-06-18T06:21:00,hdy,35.82
2022-06-18T06:22:00,hdy,34.34
2022-06-18T06:23:00,hdy,35.65
2022-06-18T06:24:00,hdy,35.28
2022-06-18T06:25:00,hdy,35.13
2022-06-18T06:26:00,hdy,35.21
2022-06-18T06:27:00,hdy,36.80
2022-06-18T06:28:00,hdy,34.13
2022-06-18T06:29:00,hdy,34.25
2022-06-18T06:30:00,hdy,34.29
2022-06-18T06:31:00,hdy,37.93
2022-06-18T06:32:00,hdy,37.92
2022-06-18T06:33:00,hdy,37.58
2022-06-18T06:34:00,hdy,37.54
2022-06-18T06:35:00,hdy,36.27
2022-06-18T06:36:00,hdy,35.91
2022-06-18T06:37:00,hdy,36.12
2022-06-18T06:38:00,hdy,37.34
2022-06-18T06:39:00,hdy,38.70
2022-06-18T06:40:00,hdy,37.60
2022-06-18T06:41:00,hdy,37.97
2022-06-18T06:42:00,hdy,36.28
2022-06-18T06:43:00,hdy,36.87
2022-06-18T06:44:00,hdy,36.91
2022-06-18T06:45:00,hdy,39.57
2022-06-18T06:46:00,hdy,38.35
2022-06-18T06:47:00,hdy,38.41
2022-06-18T06:48:00,hdy,37.77
2022-06-18T06:49:00,hdy,37.71
2022-06-18T06:50:00,hdy,38.09
2022-06-18T06:51:00,hdy,39.37
2022-06-18T06:52:00,hdy,38.69
2022-06-18T06:53:00,hdy,38.58
2022-06-18T06:54:00,hdy,39.03
2022-06-18T06:55:00,hdy,38.19
2022-06-18T06:56:00,hdy,38.57
2022-06-18T06:57:00,hdy,38.46
2022-06-18T06:58:00,hdy,39.53
2022-06-18T06:59:00,hdy,39.34
2022-06-18T07:00:00,hdy,38.68
2022-06-18T07:01:00,hdy,39.31
2022-06-18T07:02:00,hdy,37.84
2022-06-18T07:03:00,hdy,37.80
2022-06-18T07:04:00,hdy,38.77
2022-06-18T07:05:00,hdy,38.72
2022-06-18T07:06:00,hdy,40.34
2022-06-18T07:07:00,hdy,38.70
2022-06-18T07:08:00,hdy,39.25
2022-06-18T07:09:00,hdy,37.22
2022-06-18T07:10:00,hdy,38.51
2022-06-18T07:11:00,hdy,37.89
2022-06-18T07:12:00,hdy,38.43
2022-06-18T07:13:00,hdy,38.18
2022-06-18T07:14:00,hdy,37.17
2022-06-18T07:15:00,hdy,37.17
2022-06-18T07:16:00,hdy,37.21
2022-06-18T07:17:00,hdy,37.00
2022-06-18T07:18:00,hdy,39.61
2022-06-18T07:19:00,hdy,38.13
2022-06-18T07:20:00,hdy,39.02
2022-06-18T07:21:00,hdy,36.40
2022-06-18T07:22:00,hdy,36.96
2022-06-18T07:23:00,hdy,36.67
2022-06-18T07:24:00,hdy,38.04
2022-06-18T07:25:00,hdy,37.90
2022-06-18T07:26:00,hdy,38.86
2022-06-18T07:27:00,hdy,36.66
2022-06-18T07:28:00,hdy,36.39
2022-06-18T07:29:00,hdy,36.43
2022-06-18T07:30:00,hdy,36.64
2022-06-18T07:31:00,hdy,37.74
2022-06-18T07:32:00,hdy,39.65
2022-06-18T07:33:00,hdy,38.13
2022-06-18T07:34:00,hdy,38.41
2022-06-18T07:35:00,hdy,36.72
2022-06-18T07:36:00,hdy,36.93
2022-06-18T07:37:00,hdy,36.74
2022-06-18T07:38:00,hdy,39.32
2022-06-18T07:39:00,hdy,37.69
2022-06-18T07:40:00,hdy,38.11
2022-06-18T07:41:00,hdy,37.23
2022-06-18T07:42:00,hdy,37.26
2022-06-18T07:43:00,hdy,37.42
2022-06-18T07:44:00,hdy,38.25
2022-06-18T07:45:00,hdy,39.47
2022-06-18T07:46:00,hdy,37.66
2022-06-18T07:47:00,hdy,38.42
2022-06-18T07:48:00,hdy,36.89
2022-06-18T07:49:00,hdy,37.35
2022-06-18T07:50:00,hdy,36.99
2022-06-18T07:51:00,hdy,37.95
2022-06-18T07:52:00,hdy,38.15
2022-06-18T07:53:00,hdy,37.83
2022-06-18T07:54:00,hdy,36.92
2022-06-18T07:55:00,hdy,36.98
2022-06-18T07:56:00,hdy,37.04
2022-06-18T07:57:00,hdy,38.06
2022-06-18T07:58:00,hdy,39.20
2022-06-18T07:59:00,hdy,37.64
2022-06-18T08:00:00,hdy,39.93
2022-06-18T08:01:00,hdy,37.19
2022-06-18T08:02:00,hdy,38.49
2022-06-18T08:03:00,hdy,37.12
2022-06-18T08:04:00,hdy,38.06
2022-06-18T08:05:00,hdy,38.16
2022-06-18T08:06:00,hdy,37.92
2022-06-18T08:07:00,hdy,37.48
2022-06-18T08:08:00,hdy,38.54
2022-06-18T08:09:00,hdy,39.55
2022-06-18T08:10:00,hdy,38.63
2022-06-18T08:11:00,hdy,39.66
2022-06-18T08:12:00,hdy,38.16
2022-06-18T08:13:00,hdy,38.60
2022-06-18T08:14:00,hdy,39.25
2022-06-18T08:15:00,hdy,37.66
2022-06-18T08:16:00,hdy,37.82
2022-06-18T08:17:00,hdy,38.73
2022-06-18T08:18:00,hdy,38.27
2022-06-18T08:19:00,hdy,38.41
2022-06-18T08:20:00,hdy,37.48
2022-06-18T08:21:00,hdy,37.22
2022-06-18T08:22:00,hdy,37.51
2022-06-18T08:23:00,hdy,37.98
2022-06-18T08:24:00,hdy,37.89
2022-06-18T08:25:00,hdy,38.37
2022-06-18T08:26:00,hdy,37.77
2022-06-18T08:27:00,hdy,36.91
2022-06-18T08:28:00,hdy,37.08
2022-06-18T08:29:00,hdy,37.05
2022-06-18T08:30:00,hdy,37.22
2022-06-18T08:31:00,hdy,38.42
2022-06-18T08:32:00,hdy,38.99
2022-06-18T08:33:00,hdy,38.54
2022-06-18T08:34:00,hdy,37.31
2022-06-18T08:35:00,hdy,37.07
2022-06-18T08:36:00,hdy,36.93
2022-06-18T08:37:00,hdy,38.04
2022-06-18T08:38:00,hdy,37.45
2022-06-18T08:39:00,hdy,38.85
2022-06-18T08:40:00,hdy,37.57
2022-06-18T08:41:00,hdy,38.39
2022-06-18T08:42:00,hdy,37.13
2022-06-18T08:43:00,hdy,38.43
2022-06-18T08:44:00,hdy,38.57
2022-06-18T08:45:00,hdy,38.43
2022-06-18T08:46:00,hdy,38.65
2022-06-18T08:47:00,hdy,37.38
2022-06-18T08:48:00,hdy,36.75
2022-06-18T08:49:00,hdy,38.44
2022-06-18T08:50:00,hdy,37.74
2022-06-18T08:51:00,hdy,37.76
2022-06-18T08:52:00,hdy,39.82
2022-06-18T08:53:00,hdy,38.04
2022-06-18T08:54:00,hdy,37.94
2022-06-18T08:55:00,hdy,37.58
2022-06-18T08:56:00,hdy,37.56
2022-06-18T08:57:00,hdy,37.48
2022-06-18T08:58:00,hdy,38.66
2022-06-18T08:59:00,hdy,40.84
2022-06-18T09:00:00,hdy,39.13
2022-06-18T09:01:00,hdy,37.73
2022-06-18T09:02:00,hdy,38.12
2022-06-18T09:03:00,hdy,39.20
2022-06-18T09:04:00,hdy,38.84
2022-06-18T09:05:00,hdy,38.85
2022-06-18T09:06:00,hdy,38.78
2022-06-18T09:07:00,hdy,38.76
2022-06-18T09:08:00,hdy,37.70
2022-06-18T09:09:00,hdy,37.67
2022-06-18T09:10:00,hdy,38.95
2022-06-18T09:11:00,hdy,38.49
2022-06-18T09:12:00,hdy,38.37
2022-06-18T09:13:00,hdy,38.45
2022-06-18T09:14:00,hdy,37.34
2022-06-18T09:15:00,hdy,38.21
2022-06-18T09:16:00,hdy,36.65
2022-06-18T09:17:00,hdy,37.32
2022-06-18T09:18:00,hdy,38.23
2022-06-18T09:19:00,hdy,38.29
2022-06-18T09:20:00,hdy,37.96
2022-06-18T09:21:00,hdy,37.10
2022-06-18T09:22:00,hdy,38.71
2022-06-18T09:23:00,hdy,36.88
2022-06-18T09:24:00,hdy,37.31
2022-06-18T09:25:00,hdy,38.31
2022-06-18T09:26:00,hdy,39.23
2022-06-18T09:27:00,hdy,38.14
2022-06-18T09:28:00,hdy,36.68
2022-06-18T09:29:00,hdy,37.04
2022-06-18T09:30:00,hdy,38.28
2022-06-18T09:31:00,hdy,37.81
2022-06-18T09:32:00,hdy,38.07
2022-06-18T09:33:00,hdy,37.65
2022-06-18T09:34:00,hdy,37.53
2022-06-18T09:35:00,hdy,37.62
2022-06-18T09:36:00,hdy,37.28
2022-06-18T09:37:00,hdy,36.98
2022-06-18T09:38:00,hdy,38.96
2022-06-18T09:39:00,hdy,38.07
2022-06-18T09:40:00,hdy,37.89
2022-06-18T09:41:00,hdy,36.84
2022-06-18T09:42:00,hdy,36.93
2022-06-18T09:43:00,hdy,38.76
2022-06-18T09:44:00,hdy,38.13
2022-06-18T09:45:00,hdy,38.63
2022-06-18T09:46:00,hdy,38.04
2022-06-18T09:47:00,hdy,39.59
2022-06-18T09:48:00,hdy,36.93
2022-06-18T09:49:00,hdy,38.43
2022-06-18T09:50:00,hdy,37.20
2022-06-18T09:51:00,hdy,40.29
2022-06-18T09:52:00,hdy,38.69
2022-06-18T09:53:00,hdy,40.29
2022-06-18T09:54:00,hdy,37.63
2022-06-18T09:55:00,hdy,37.63
2022-06-18T09:56:00,hdy,37.53
2022-06-18T09:57:00,hdy,38.44
2022-06-18T09:58:00,hdy,38.58
2022-06-18T09:59:00,hdy,38.50
2022-06-18T10:00:00,hdy,38.68
2022-06-18T10:01:00,hdy,38.52
2022-06-18T10:02:00,hdy,38.19
2022-06-18T10:03:00,hdy,38.14
2022-06-18T10:04:00,hdy,39.02
2022-06-18T10:05:00,hdy,39.07
2022-06-18T10:06:00,hdy,39.31
2022-06-18T10:07:00,hdy,38.18
2022-06-18T10:08:00,hdy,38.57
2022-06-18T10:09:00,hdy,38.54
2022-06-18T10:10:00,hdy,39.35
2022-06-18T10:11:00,hdy,39.28
2022-06-18T10:12:00,hdy,37.94
2022-06-18T10:13:00,hdy,38.30
2022-06-18T10:14:00,hdy,37.61
2022-06-18T10:15:00,hdy,37.75
2022-06-18T10:16:00,hdy,37.44
2022-06-18T10:17:00,hdy,38.85
2022-06-18T10:18:00,hdy,38.29
2022-06-18T10:19:00,hdy,38.27
2022-06-18T10:20:00,hdy,38.52
2022-06-18T10:21:00,hdy,37.61
2022-06-18T10:22:00,hdy,37.99
2022-06-18T10:23:00,hdy,37.18
2022-06-18T10:24:00,hdy,39.20
2022-06-18T10:25:00,hdy,38.30
2022-06-18T10:26:00,hdy,38.06
2022-06-18T10:27:00,hdy,37.70
2022-06-18T10:28:00,hdy,36.87
2022-06-18T10:29:00,hdy,37.28
2022-06-18T10:30:00,hdy,36.73
2022-06-18T10:31:00,hdy,37.68
2022-06-18T10:32:00,hdy,37.91
2022-06-18T10:33:00,hdy,39.44
2022-06-18T10:34:00,hdy,36.75
2022-06-18T10:35:00,hdy,38.39
2022-06-18T10:36:00,hdy,36.37
2022-06-18T10:37:00,hdy,36.79
2022-06-18T10:38:00,hdy,38.11
2022-06-18T10:39:00,hdy,39.67
2022-06-18T10:40:00,hdy,37.83
2022-06-18T10:41:00,hdy,37.11
2022-06-18T10:42:00,hdy,37.43
2022-06-18T10:43:00,hdy,37.13
2022-06-18T10:44:00,hdy,38.37
2022-06-18T10:45:00,hdy,38.85
2022-06-18T10:46:00,hdy,38.64
2022-06-18T10:47:00,hdy,39.15
2022-06-18T10:48:00,hdy,37.51
2022-06-18T10:49:00,hdy,37.31
2022-06-18T10:50:00,hdy,37.15
2022-06-18T10:51:00,hdy,38.55
2022-06-18T10:52:00,hdy,40.01
2022-06-18T10:53:00,hdy,38.56
2022-06-18T10:54:00,hdy,37.35
2022-06-18T10:55:00,hdy,37.52
2022-06-18T10:56:00,hdy,37.22
2022-06-18T10:57:00,hdy,38.72
2022-06-18T10:58:00,hdy,38.19
2022-06-18T10:59:00,hdy,37.97
2022-06-18T11:00:00,hdy,37.32
2022-06-18T11:01:00,hdy,37.05
2022-06-18T11:02:00,hdy,38.81
2022-06-18T11:03:00,hdy,37.12
2022-06-18T11:04:00,hdy,38.09
2022-06-18T11:05:00,hdy,37.91
2022-06-18T11:06:00,hdy,38.00
2022-06-18T11:07:00,hdy,36.75
2022-06-18T11:08:00,hdy,37.85
2022-06-18T11:09:00,hdy,36.79
2022-06-18T11:10:00,hdy,38.05
2022-06-18T11:11:00,hdy,37.84
2022-06-18T11:12:00,hdy,39.55
2022-06-18T11:13:00,hdy,37.49
2022-06-18T11:14:00,hdy,36.64
2022-06-18T11:15:00,hdy,36.86
2022-06-18T11:16:00,hdy,38.49
2022-06-18T11:17:00,hdy,38.11
2022-06-18T11:18:00,hdy,39.38
2022-06-18T11:19:00,hdy,37.75
2022-06-18T11:20:00,hdy,38.11
2022-06-18T11:21:00,hdy,37.08
2022-06-18T11:22:00,hdy,37.15
2022-06-18T11:23:00,hdy,38.63
2022-06-18T11:24:00,hdy,38.02
2022-06-18T11:25:00,hdy,37.91
2022-06-18T11:26:00,hdy,38.48
2022-06-18T11:27:00,hdy,37.47
2022-06-18T11:28:00,hdy,38.71
2022-06-18T11:29:00,hdy,38.30
2022-06-18T11:30:00,hdy,39.44
2022-06-18T11:31:00,hdy,39.16
2022-06-18T11:32:00,hdy,40.58
2022-06-18T11:33:00,hdy,38.50
2022-06-18T11:34:00,hdy,37.98
2022-06-18T11:35:00,hdy,37.74
2022-06-18T11:36:00,hdy,37.43
2022-06-18T11:37:00,hdy,38.99
2022-06-18T11:38:00,hdy,38.45
2022-06-18T11:39:00,hdy,39.71
2022-06-18T11:40:00,hdy,39.03
2022-06-18T11:41:00,hdy,38.55
2022-06-18T11:42:00,hdy,38.23
2022-06-18T11:43:00,hdy,38.34
2022-06-18T11:44:00,hdy,39.56
2022-06-18T11:45:00,hdy,39.47
2022-06-18T11:46:00,hdy,40.63
2022-06-18T11:47:00,hdy,38.79
2022-06-18T11:48:00,hdy,37.70
2022-06-18T11:49:00,hdy,38.01
2022-06-18T11:50:00,hdy,38.02
2022-06-18T11:51:00,hdy,40.07
2022-06-18T11:52:00,hdy,38.61
2022-06-18T11:53:00,hdy,39.93
2022-06-18T11:54:00,hdy,37.89
2022-06-18T11:55:00,hdy,37.77
2022-06-18T11:56:00,hdy,37.87
2022-06-18T11:57:00,hdy,38.58
2022-06-18T11:58:00,hdy,39.16
2022-06-18T11:59:00,hdy,38.69
2022-06-18T12:00:00,hdy,38.85
2022-06-18T12:01:00,hdy,37.83
2022-06-18T12:02:00,hdy,39.17
2022-06-18T12:03:00,hdy,37.74
2022-06-18T12:04:00,hdy,39.65
2022-06-18T12:05:00,hdy,37.75
2022-06-18T12:06:00,hdy,37.67
2022-06-18T12:07:00,hdy,36.76
2022-06-18T12:08:00,hdy,38.37
2022-06-18T12:09:00,hdy,36.44
2022-06-18T12:10:00,hdy,37.01
2022-06-18T12:11:00,hdy,37.52
2022-06-18T12:12:00,hdy,39.14
2022-06-18T12:13:00,hdy,37.85
2022-06-18T12:14:00,hdy,36.74
2022-06-18T12:15:00,hdy,36.64
2022-06-18T12:16:00,hdy,36.45
2022-06-18T12:17:00,hdy,36.83
2022-06-18T12:18:00,hdy,37.64
2022-06-18T12:19:00,hdy,37.57
2022-06-18T12:20:00,hdy,36.96
2022-06-18T12:21:00,hdy,37.30
2022-06-18T12:22:00,hdy,37.06
2022-06-18T12:23:00,hdy,37.24
2022-06-18T12:24:00,hdy,37.45
2022-06-18T12:25:00,hdy,37.92
2022-06-18T12:26:00,hdy,37.73
2022-06-18T12:27:00,hdy,36.89
2022-06-18T12:28:00,hdy,36.63
2022-06-18T12:29:00,hdy,36.62
2022-06-18T12:30:00,hdy,36.45
2022-06-18T12:31:00,hdy,37.94
2022-06-18T12:32:00,hdy,37.80
2022-06-18T12:33:00,hdy,38.91
2022-06-18T12:34:00,hdy,36.59
2022-06-18T12:35:00,hdy,38.20
2022-06-18T12:36:00,hdy,37.15
2022-06-18T12:37:00,hdy,37.35
2022-06-18T12:38:00,hdy,37.64
2022-06-18T12:39:00,hdy,39.38
2022-06-18T12:40:00,hdy,38.07
2022-06-18T12:41:00,hdy,37.22
2022-06-18T12:42:00,hdy,37.57
2022-06-18T12:43:00,hdy,37.59
2022-06-18T12:44:00,hdy,37.48
2022-06-18T12:45:00,hdy,40.12
2022-06-18T12:46:00,hdy,39.04
2022-06-18T12:47:00,hdy,38.21
2022-06-18T12:48:00,hdy,37.39
2022-06-18T12:49:00,hdy,38.72
2022-06-18T12:50:00,hdy,39.07
2022-06-18T12:51:00,hdy,39.62
2022-06-18T12:52:00,hdy,40.43
2022-06-18T12:53:00,hdy,39.64
2022-06-18T12:54:00,hdy,40.91
2022-06-18T12:55:00,hdy,37.81
2022-06-18T12:56:00,hdy,37.81
2022-06-18T12:57:00,hdy,37.39
2022-06-18T12:58:00,hdy,38.19
2022-06-18T12:59:00,hdy,38.19
2022-06-18T13:00:00,hdy,37.71
2022-06-18T13:01:00,hdy,36.73
2022-06-18T13:02:00,hdy,37.11
2022-06-18T13:03:00,hdy,37.01
2022-06-18T13:04:00,hdy,36.66
2022-06-18T13:05:00,hdy,37.42
2022-06-18T13:06:00,hdy,37.57
2022-06-18T13:07:00,hdy,37.27
2022-06-18T13:08:00,hdy,36.40
2022-06-18T13:09:00,hdy,38.07
2022-06-18T13:10:00,hdy,36.99
2022-06-18T13:11:00,hdy,38.38
2022-06-18T13:12:00,hdy,39.40
2022-06-18T13:13:00,hdy,39.64
2022-06-18T13:14:00,hdy,39.99
2022-06-18T13:15:00,hdy,36.82
2022-06-18T13:16:00,hdy,37.16
2022-06-18T13:17:00,hdy,37.64
2022-06-18T13:18:00,hdy,38.62